Palma de Mallorca, Spain

7:36 PM CEST on March 28, 2017 (GMT +0200)
Palma De Mallorca

Weather History for LEPA - April, 2013

Change the Weather History Date:

Tuesday, April 2, 2013

  Actual Average Record
Temperature  
Mean Temperature 54 °F -  
Max Temperature 66 °F 66 °F 75 °F (2011)
Min Temperature 41 °F 46 °F 37 °F (1997)
Degree Days  
Heating Degree Days 12    
Growing Degree Days 4 (Base 50)    
Moisture  
Dew Point 45 °F    
Average Humidity 69    
Maximum Humidity 100    
Minimum Humidity 27    
Precipitation  
Precipitation 0.00 in 0.05 in - ()
Sea Level Pressure  
Sea Level Pressure 29.71 in    
Wind  
Wind Speed 6 mph ()    
Max Wind Speed 20 mph    
Max Gust Speed -    
Visibility 7.0 miles    
Events      
Averages and records for this station are not official NWS values.
T = Trace of Precipitation, MM = Missing Value Source: Averaged Metar Reports

Daily Weather History Graph

Daily Weather History Graph

Search for Another Location

Airport or City:

Trip Planner

Search our weather history database for the weather conditions in past years. The results will help you decide how hot, cold, wet, or windy it might be!

Date:

Astronomy

Apr. 02, 2013 Rise Set
Actual Time 7:31 AM CEST 8:14 PM CEST
Civil Twilight 7:04 AM CEST 8:41 PM CEST
Nautical Twilight 6:32 AM CEST 9:13 PM CEST
Astronomical Twilight 5:59 AM CEST 9:46 PM CEST
Moon 2:03 AM CEST (4/2) 12:06 PM CEST (4/2)
Length of Visible Light 13h 36m
Length of Day
12h 42m
Waning Gibbous, 59% of the Moon is Illuminated
Apr 2
Waning Gibbous
Apr 3
Last Quarter
Apr 10
New
Apr 18
First Quarter
Apr 25
Full

Hourly Weather History & Observations

Time (CEST) Temp. Dew Point Humidity Pressure Visibility Wind Dir Wind Speed Gust Speed Precip Events Conditions
12:00 AM 53.6 °F 48.2 °F 82% 29.65 in 6.2 mi ENE 11.5 mph - N/A   Partly Cloudy
12:30 AM 53.6 °F 46.4 °F 77% 29.65 in 6.2 mi ENE 11.5 mph - N/A   Partly Cloudy
1:00 AM 51.8 °F 46.4 °F 82% 29.65 in 6.2 mi ENE 8.1 mph - N/A   Partly Cloudy
1:30 AM 51.8 °F 46.4 °F 82% 29.65 in 6.2 mi Calm Calm - N/A   Partly Cloudy
2:00 AM 49 °F 43 °F 72% 29.68 in 9 mi Calm Calm - -   Scattered Clouds
2:00 AM 50.0 °F 46.4 °F 87% 29.65 in 6.2 mi Calm Calm - N/A   Partly Cloudy
2:30 AM 50.0 °F 46.4 °F 87% 29.65 in 6.2 mi ENE 3.5 mph - N/A   Partly Cloudy
3:00 AM 48.2 °F 44.6 °F 87% 29.65 in 6.2 mi Calm Calm - N/A   Partly Cloudy
3:30 AM 48.2 °F 44.6 °F 87% 29.65 in 6.2 mi NE 1.2 mph - N/A   Partly Cloudy
4:00 AM 46.4 °F 42.8 °F 87% 29.65 in 6.2 mi Calm Calm - N/A   Partly Cloudy
4:30 AM 46.4 °F 44.6 °F 93% 29.65 in 6.2 mi Calm Calm - N/A   Partly Cloudy
5:00 AM 44.6 °F 42.8 °F 93% 29.65 in 6.2 mi ENE 1.2 mph - N/A   Partly Cloudy
5:30 AM 44.6 °F 42.8 °F 93% 29.65 in 6.2 mi Variable 2.3 mph - N/A   Partly Cloudy
6:00 AM 46.4 °F 42.8 °F 87% 29.65 in 6.2 mi Variable 1.2 mph - N/A   Partly Cloudy
6:30 AM 44.6 °F 42.8 °F 93% 29.65 in 6.2 mi Variable 1.2 mph - N/A   Partly Cloudy
7:00 AM 44.6 °F 42.8 °F 93% 29.65 in 6.2 mi Calm Calm - N/A   Partly Cloudy
7:30 AM 44.6 °F 42.8 °F 93% 29.68 in 6.2 mi Calm Calm - N/A   Partly Cloudy
8:00 AM 42 °F 40 °F 88% 29.69 in 14 mi Calm Calm - -   Scattered Clouds
8:00 AM 42.8 °F 42.8 °F 100% 29.68 in 6.2 mi Calm Calm - N/A   Partly Cloudy
8:30 AM 46.4 °F 44.6 °F 93% 29.68 in 6.2 mi Calm Calm - N/A   Partly Cloudy
9:00 AM 50.0 °F 48.2 °F 94% 29.68 in 6.2 mi Calm Calm - N/A   Partly Cloudy
9:30 AM 53.6 °F 50.0 °F 88% 29.68 in 6.2 mi Calm Calm - N/A   Partly Cloudy
10:00 AM 57.2 °F 51.8 °F 82% 29.71 in 6.2 mi SW 5.8 mph - N/A   Partly Cloudy
10:30 AM 59.0 °F 53.6 °F 82% 29.71 in 6.2 mi SW 6.9 mph - N/A   Partly Cloudy
11:00 AM 60.8 °F 51.8 °F 72% 29.71 in 6.2 mi WSW 9.2 mph - N/A   Partly Cloudy
11:30 AM 64.4 °F 48.2 °F 56% 29.71 in 6.2 mi NNW 13.8 mph - N/A   Scattered Clouds
12:00 PM 64.4 °F 44.6 °F 49% 29.71 in 6.2 mi NW 12.7 mph - N/A   Scattered Clouds
12:30 PM 64.4 °F 44.6 °F 49% 29.71 in 6.2 mi NW 12.7 mph - N/A   Scattered Clouds
1:00 PM 64.4 °F 41.0 °F 42% 29.71 in 6.2 mi WNW 16.1 mph - N/A   Scattered Clouds
1:30 PM 64.4 °F 42.8 °F 45% 29.71 in 6.2 mi WNW 13.8 mph - N/A   Scattered Clouds
2:00 PM 64 °F 38 °F 27% 29.73 in 19 mi WNW 12.7 mph - -   Partly Cloudy
2:00 PM 64.4 °F 42.8 °F 45% 29.71 in 6.2 mi WNW 16.1 mph - N/A   Scattered Clouds
2:30 PM 64.4 °F 41.0 °F 42% 29.74 in 6.2 mi WNW 13.8 mph - N/A   Scattered Clouds
3:00 PM 64.4 °F 41.0 °F 42% 29.74 in 6.2 mi WNW 13.8 mph - N/A   Scattered Clouds
3:30 PM 66.2 °F 41.0 °F 40% 29.74 in 6.2 mi WNW 12.7 mph - N/A   Scattered Clouds
4:00 PM 66.2 °F 41.0 °F 40% 29.74 in 6.2 mi West 13.8 mph - N/A   Scattered Clouds
4:30 PM 66.2 °F 42.8 °F 43% 29.74 in 6.2 mi WSW 17.3 mph - N/A   Partly Cloudy
5:00 PM 64.4 °F 42.8 °F 45% 29.74 in 6.2 mi WSW 19.6 mph - N/A   Partly Cloudy
5:30 PM 64.4 °F 42.8 °F 45% 29.74 in 6.2 mi West 18.4 mph - N/A   Partly Cloudy
6:00 PM 64.4 °F 41.0 °F 42% 29.74 in 6.2 mi WSW 16.1 mph - N/A   Partly Cloudy
6:30 PM 64.4 °F 44.6 °F 49% 29.74 in 6.2 mi West 15.0 mph - N/A   Partly Cloudy
7:00 PM 64.4 °F 42.8 °F 45% 29.74 in 6.2 mi West 13.8 mph - N/A   Partly Cloudy
7:30 PM 62.6 °F 46.4 °F 55% 29.74 in - West 12.7 mph - N/A   Clear
8:00 PM 60 °F 43 °F 42% 29.77 in 19 mi West 9.2 mph - -   Scattered Clouds
8:00 PM 60.8 °F 46.4 °F 59% 29.77 in - West 11.5 mph - N/A   Clear
8:30 PM 59.0 °F 48.2 °F 67% 29.77 in - West 10.4 mph - N/A   Clear
9:00 PM 59.0 °F 48.2 °F 67% 29.77 in - West 9.2 mph - N/A   Clear
9:30 PM 59.0 °F 48.2 °F 67% 29.77 in - West 11.5 mph - N/A   Clear
10:00 PM 59.0 °F 50.0 °F 72% 29.77 in - WSW 10.4 mph - N/A   Clear
10:30 PM 57.2 °F 50.0 °F 77% 29.80 in - WSW 3.5 mph - N/A   Clear
11:00 PM 57.2 °F 51.8 °F 82% 29.80 in - Variable 3.5 mph - N/A   Clear
11:30 PM 51.8 °F 46.4 °F 82% 29.80 in - South 3.5 mph - N/A   Clear